Pinedale, WY

11:46 AM MST on November 21, 2017 (GMT -0700)
Wenz

Weather History for KPNA - January, 2013

Change the Weather History Date:

Sunday, January 13, 2013

  Actual Average (KBPI) Record (KBPI)
Temperature  
Mean Temperature -12 °F -  
Max Temperature 5 °F 22 °F 42 °F (1994)
Min Temperature -29 °F 0 °F -30 °F (2013)
Degree Days  
Heating Degree Days 77    
Moisture  
Dew Point -17 °F    
Average Humidity 77    
Maximum Humidity 85    
Minimum Humidity 61    
Precipitation  
Precipitation 0.00 in - - ()
Sea Level Pressure  
Sea Level Pressure 29.91 in    
Wind  
Wind Speed 3 mph (WNW)    
Max Wind Speed 8 mph    
Max Gust Speed -    
Visibility 8 miles    
Events Snow    
Averages and records for this station are not official NWS values.
T = Trace of Precipitation, MM = Missing Value Source: NWS Daily Summary

Daily Weather History Graph

Daily Weather History Graph

Search for Another Location

Airport or City:

Trip Planner

Search our weather history database for the weather conditions in past years. The results will help you decide how hot, cold, wet, or windy it might be!

Date:

Astronomy

Jan. 13, 2013 Rise Set
Actual Time 7:47 AM MST 5:08 PM MST
Civil Twilight 7:16 AM MST 5:40 PM MST
Nautical Twilight 6:41 AM MST 6:15 PM MST
Astronomical Twilight 6:07 AM MST 6:49 PM MST
Moon 8:44 AM MST (1/13) 7:55 PM MST (1/13)
Length of Visible Light 10h 23m
Length of Day
9h 20m
Waxing Crescent, 5% of the Moon is Illuminated
Jan 13
Waxing Crescent
Jan 18
First Quarter
Jan 26
Full
Feb 3
Last Quarter
Feb 10
New

Hourly Weather History & Observations

Time (MST) Temp. Windchill Dew Point Humidity Pressure Visibility Wind Dir Wind Speed Gust Speed Precip Events Conditions
12:15 AM -11.2 °F -20.6 °F -16.6 °F 77% 29.85 in 4.0 mi WNW 3.5 mph - N/A Snow Light Snow
12:35 AM -13.0 °F -25.1 °F -16.6 °F 84% 29.86 in 5.0 mi WNW 4.6 mph - N/A Snow Light Snow
12:55 AM -13.0 °F -25.1 °F -18.4 °F 77% 29.86 in 5.0 mi WNW 4.6 mph - N/A Snow Light Snow
1:15 AM -14.8 °F -29.1 °F -18.4 °F 84% 29.87 in 5.0 mi WNW 5.8 mph - N/A Snow Light Snow
1:35 AM -14.8 °F -29.1 °F -18.4 °F 84% 29.87 in 5.0 mi WNW 5.8 mph - N/A   Overcast
1:55 AM -13.0 °F -22.7 °F -16.6 °F 84% 29.87 in 10.0 mi WNW 3.5 mph - N/A   Overcast
2:15 AM -13.0 °F -25.1 °F -16.6 °F 84% 29.87 in 10.0 mi WNW 4.6 mph - N/A   Overcast
2:35 AM -11.2 °F -23.0 °F -14.8 °F 84% 29.87 in 5.0 mi WNW 4.6 mph - N/A   Overcast
2:55 AM -9.4 °F -22.7 °F -14.8 °F 77% 29.87 in 5.0 mi NW 5.8 mph - N/A   Overcast
3:15 AM -9.4 °F -22.7 °F -14.8 °F 77% 29.87 in 4.0 mi NW 5.8 mph - N/A   Haze
3:35 AM -9.4 °F -20.9 °F -14.8 °F 77% 29.87 in 5.0 mi WNW 4.6 mph - N/A   Haze
3:55 AM -9.4 °F -18.6 °F -13.0 °F 84% 29.85 in 4.0 mi WNW 3.5 mph - N/A   Overcast
4:15 AM -9.4 °F -20.9 °F -13.0 °F 84% 29.85 in 3.0 mi WNW 4.6 mph - N/A   Overcast
4:35 AM -7.6 °F -16.5 °F -13.0 °F 77% 29.85 in 5.0 mi WNW 3.5 mph - N/A   Haze
4:55 AM -7.6 °F -16.5 °F -13.0 °F 77% 29.85 in 5.0 mi WNW 3.5 mph - N/A   Haze
5:15 AM -7.6 °F - -13.0 °F 77% 29.85 in 4.0 mi Calm Calm - N/A   Haze
5:35 AM -7.6 °F - -13.0 °F 77% 29.85 in 5.0 mi Calm Calm - N/A   Haze
5:55 AM -7.6 °F - -13.0 °F 77% 29.86 in 4.0 mi Calm Calm - N/A   Overcast
6:15 AM -7.6 °F - -13.0 °F 77% 29.87 in 5.0 mi Calm Calm - N/A   Overcast
6:35 AM -9.4 °F -20.9 °F -14.8 °F 77% 29.87 in 4.0 mi ESE 4.6 mph - N/A   Haze
6:55 AM -11.2 °F -23.0 °F -14.8 °F 84% 29.88 in 4.0 mi ESE 4.6 mph - N/A   Overcast
7:15 AM -11.2 °F -20.6 °F -16.6 °F 77% 29.89 in 5.0 mi East 3.5 mph - N/A Snow Light Snow
7:35 AM -13.0 °F - -16.6 °F 84% 29.89 in 7.0 mi Calm Calm - N/A   Overcast
7:55 AM -13.0 °F - -16.6 °F 84% 29.90 in 7.0 mi Calm Calm - N/A   Mostly Cloudy
8:15 AM -13.0 °F - -18.4 °F 77% 29.91 in 10.0 mi Calm Calm - N/A   Scattered Clouds
8:35 AM -16.6 °F - -22.0 °F 76% 29.92 in 10.0 mi Calm Calm - N/A   Scattered Clouds
8:55 AM -16.6 °F - -22.0 °F 76% 29.93 in 10.0 mi Calm Calm - N/A   Mostly Cloudy
9:15 AM -14.8 °F -24.8 °F -20.2 °F 77% 29.93 in 10.0 mi West 3.5 mph - N/A   Overcast
9:35 AM -14.8 °F -24.8 °F -18.4 °F 84% 29.93 in 7.0 mi WNW 3.5 mph - N/A   Mostly Cloudy
9:55 AM -13.0 °F -22.7 °F -16.6 °F 84% 29.93 in 5.0 mi WNW 3.5 mph - N/A   Overcast
10:15 AM -9.4 °F - -14.8 °F 77% 29.93 in 5.0 mi Calm Calm - N/A   Haze
10:35 AM -9.4 °F - -14.8 °F 77% 29.93 in 7.0 mi Calm Calm - N/A   Clear
10:55 AM -7.6 °F - -13.0 °F 77% 29.93 in 7.0 mi Calm Calm - N/A   Clear
11:15 AM -5.8 °F - -9.4 °F 84% 29.92 in 5.0 mi Calm Calm - N/A   Scattered Clouds
11:35 AM -5.8 °F - -9.4 °F 84% 29.92 in 7.0 mi Calm Calm - N/A   Overcast
11:55 AM -4.0 °F - -9.4 °F 78% 29.91 in 7.0 mi Calm Calm - N/A   Overcast
12:15 PM -4.0 °F - -7.6 °F 85% 29.90 in 7.0 mi Calm Calm - N/A   Overcast
12:35 PM 1.4 °F - -5.8 °F 72% 29.90 in 4.0 mi Calm Calm - N/A   Haze
12:55 PM 1.4 °F - -7.6 °F 66% 29.89 in 5.0 mi Calm Calm - N/A   Haze
1:15 PM -0.4 °F - -7.6 °F 72% 29.90 in 10.0 mi Calm Calm - N/A   Clear
1:35 PM -0.4 °F - -7.6 °F 72% 29.90 in 10.0 mi Calm Calm - N/A   Clear
1:55 PM -0.4 °F - -7.6 °F 72% 29.90 in 10.0 mi Calm Calm - N/A   Clear
2:15 PM 3.2 °F - -7.6 °F 61% 29.90 in 10.0 mi Calm Calm - N/A   Clear
2:35 PM -0.4 °F - -7.6 °F 72% 29.91 in 10.0 mi Calm Calm - N/A   Scattered Clouds
2:55 PM 5.0 °F - -5.8 °F 61% 29.92 in 10.0 mi Calm Calm - N/A   Mostly Cloudy
3:15 PM 5.0 °F - -5.8 °F 61% 29.92 in 10.0 mi Calm Calm - N/A   Mostly Cloudy
3:35 PM 1.4 °F - -7.6 °F 66% 29.93 in 10.0 mi Calm Calm - N/A   Scattered Clouds
3:55 PM -0.4 °F - -7.6 °F 72% 29.93 in 10.0 mi Calm Calm - N/A   Clear
4:15 PM -0.4 °F - -7.6 °F 72% 29.93 in 10.0 mi Calm Calm - N/A   Clear
4:35 PM -2.2 °F -10.4 °F -9.4 °F 71% 29.93 in 10.0 mi SE 3.5 mph - N/A   Clear
4:55 PM -5.8 °F - -9.4 °F 84% 29.93 in 10.0 mi Calm Calm - N/A   Clear
5:15 PM -7.6 °F - -13.0 °F 77% 29.93 in 10.0 mi Calm Calm - N/A   Clear
5:35 PM -9.4 °F - -14.8 °F 77% 29.93 in 10.0 mi Calm Calm - N/A   Clear
5:55 PM -16.6 °F - -22.0 °F 76% 29.95 in 10.0 mi Calm Calm - N/A   Clear
6:15 PM -18.4 °F -28.9 °F -23.8 °F 76% 29.95 in 10.0 mi WNW 3.5 mph - N/A   Clear
6:35 PM -18.4 °F -31.4 °F -23.8 °F 76% 29.95 in 10.0 mi WNW 4.6 mph - N/A   Clear
6:55 PM -22.0 °F -37.7 °F -25.6 °F 83% 29.95 in 10.0 mi WNW 5.8 mph - N/A   Clear
7:15 PM -23.8 °F -43.2 °F -29.2 °F 76% 29.96 in 10.0 mi WNW 8.1 mph - N/A   Clear
7:35 PM -23.8 °F -41.6 °F -27.4 °F 83% 29.97 in 10.0 mi WNW 6.9 mph - N/A   Clear
7:55 PM -25.6 °F -45.4 °F -31.0 °F 76% 29.97 in 10.0 mi WNW 8.1 mph - N/A   Clear
8:15 PM -25.6 °F -41.9 °F -31.0 °F 76% 29.97 in 10.0 mi WNW 5.8 mph - N/A   Mostly Cloudy
8:35 PM -23.8 °F -39.8 °F -29.2 °F 76% 29.97 in 10.0 mi NW 5.8 mph - N/A   Overcast
8:55 PM -20.2 °F -33.5 °F -25.6 °F 76% 29.96 in 10.0 mi NW 4.6 mph - N/A   Overcast
9:15 PM -25.6 °F -43.8 °F -31.0 °F 76% 29.96 in 10.0 mi NW 6.9 mph - N/A   Scattered Clouds
9:35 PM -25.6 °F -43.8 °F -31.0 °F 76% 29.96 in 10.0 mi WNW 6.9 mph - N/A   Clear
9:55 PM -25.6 °F -43.8 °F -32.8 °F 69% 29.96 in 10.0 mi West 6.9 mph - N/A   Clear
10:35 PM -27.4 °F -47.6 °F -34.6 °F 69% 29.97 in 10.0 mi WNW 8.1 mph - N/A   Clear
10:55 PM -29.2 °F -46.2 °F -34.6 °F 75% 29.97 in 10.0 mi WNW 5.8 mph - N/A   Clear
11:15 PM -25.6 °F -37.1 °F -32.8 °F 69% 29.97 in 10.0 mi West 3.5 mph - N/A   Clear
11:55 PM -25.6 °F -41.9 °F -32.8 °F 69% 29.97 in 10.0 mi WNW 5.8 mph - N/A   Clear